Orbital Elements at Epoch 2459200.5 (2020-Dec-17.0) TDB
Reference: JPL 18 (heliocentric ecliptic J2000)
Element | Value | Uncertainty (1-sigma) | Units |
e | .1183649987862709 | 5.5917e-08 | |
a | 2.457069208873948 | 1.0176e-08 | au |
q | 2.166238214947799 | 1.3388e-07 | au |
i | 6.834745326712768 | 5.1899e-06 | deg |
node | 75.5231710902339 | 3.2577e-05 | deg |
peri | 312.7185007608161 | 3.9066e-05 | deg |
M | 33.2445811739592 | 1.8175e-05 | deg |
tp | 2459070.589912185381 (2020-Aug-09.08991219) | 7.1181e-05 | TDB |
period | 1406.774576841306 3.85 | 8.739e-06 2.393e-08 | d yr |
n | .2559045393102881 | 1.5897e-09 | deg/d |
Q | 2.747900202800096 | 1.138e-08 | au |
|
| | Orbit Determination Parameters
Additional Information
|